Location: Newark
(7.0858°N, 171.3717°E)
Time: 09:04:34
(UTC+00:00)

S-56A Canister/Altair - Pass Details

Date: 28 November 2020
Orbit: 633 x 2499 km, 38.9° (Epoch: 27 January)

Event Time Altitude Azimuth Distance (km) Brightness Sun altitude
Rises 16:29:01 0° 302° (WNW) 2,922 - -29.0°
Reaches altitude 10° 16:31:18 10° 296° (WNW) 2,000 - -28.5°
Maximum altitude 16:35:35 51° 220° (SW) 833 - -27.5°
Exits shadow 16:36:30 44° 182° (S) 938 8.0 -27.3°
Drops below altitude 10° 16:40:34 10° 144° (SE) 2,326 10.7 -26.3°
Sets 16:43:25 0° 139° (SE) 3,461 11.8 -25.6°
